| time (UTC) | temp C | wind direction | speed KPH | gust KPH | rain 1hr cm | rain 24hr cm | rain mn cm | humidity % | barometer mb |
| 20260507232206 | 16 | 99 | 6.4 | 12.9 | 0.00 | 0.61 | 0.00 | 88 | 1014.8 |
| 20260507231524 | 16 | 102 | 8.0 | 11.3 | 0.00 | 0.00 | 0.00 | 88 | 1014.4 |
| 20260507231131 | 16 | 98 | 8.0 | 9.7 | 0.00 | 0.61 | 0.00 | 89 | 1014.8 |
| 20260507230128 | 16 | 105 | 8.0 | 11.3 | 0.00 | 0.61 | 0.00 | 89 | 1014.8 |
| 20260507230022 | 16 | 107 | 8.0 | 11.3 | 0.00 | 0.00 | 0.00 | 88 | 1014.4 |
| 20260507225131 | 16 | 105 | 9.7 | 16.1 | 0.00 | 0.61 | 0.00 | 89 | 1014.8 |
| 20260507224518 | 16 | 101 | 9.7 | 16.1 | 0.00 | 0.05 | 0.00 | 88 | 1014.4 |
| 20260507224203 | 16 | 100 | 9.7 | 12.9 | 0.00 | 0.61 | 0.00 | 89 | 1014.8 |
| 20260507223016 | 16 | 91 | 8.0 | 9.7 | 0.00 | 0.08 | 0.00 | 89 | 1014.3 |
| 20260507222129 | 16 | 103 | 8.0 | 11.3 | 0.00 | 0.79 | 0.00 | 89 | 1014.7 |
| 20260507221528 | 16 | 105 | 6.4 | 11.3 | 0.00 | 0.13 | 0.00 | 89 | 1014.3 |
| 20260507221123 | 16 | 96 | 6.4 | 8.0 | 0.00 | 0.79 | 0.00 | 90 | 1014.7 |
| 20260507220131 | 16 | 90 | 4.8 | 8.0 | 0.00 | 0.79 | 0.00 | 89 | 1014.7 |
| 20260507220028 | 16 | 92 | 4.8 | 9.7 | 0.00 | 0.15 | 0.00 | 89 | 1014.3 |
| 20260507215129 | 16 | 102 | 8.0 | 11.3 | 0.00 | 0.79 | 0.00 | 89 | 1014.6 |
| 20260507214524 | 16 | 91 | 8.0 | 11.3 | 0.00 | 0.15 | 0.15 | 88 | 1014.1 |
| 20260507214136 | 16 | 94 | 8.0 | 9.7 | 0.00 | 0.79 | 0.00 | 88 | 1014.5 |
| 20260507213138 | 16 | 85 | 6.4 | 8.0 | 0.00 | 0.79 | 0.00 | 87 | 1014.5 |
| 20260507213029 | 16 | 88 | 6.4 | 8.0 | 0.00 | 0.15 | 0.15 | 87 | 1014.1 |
| 20260507212138 | 16 | 85 | 6.4 | 11.3 | 0.00 | 0.79 | 0.00 | 87 | 1014.5 |
| 20260507211522 | 16 | 90 | 6.4 | 8.0 | 0.00 | 0.15 | 0.15 | 87 | 1014.1 |
| 20260507211130 | 16 | 98 | 6.4 | 8.0 | 0.00 | 0.79 | 0.00 | 87 | 1014.6 |
| 20260507210123 | 16 | 95 | 8.0 | 9.7 | 0.00 | 0.79 | 0.00 | 87 | 1014.6 |
| 20260507210017 | 16 | 115 | 8.0 | 9.7 | 0.00 | 0.15 | 0.15 | 86 | 1014.3 |
| 20260507205131 | 16 | 96 | 6.4 | 8.0 | 0.00 | 0.79 | 0.00 | 86 | 1014.7 |
| 20260507204514 | 16 | 91 | 6.4 | 9.7 | 0.00 | 0.15 | 0.15 | 86 | 1014.3 |
| 20260507204154 | 16 | 99 | 6.4 | 9.7 | 0.00 | 0.79 | 0.00 | 86 | 1014.7 |
| 20260507203129 | 16 | 98 | 6.4 | 8.0 | 0.00 | 0.79 | 0.00 | 86 | 1014.7 |
| 20260507203008 | 16 | 107 | 6.4 | 9.7 | 0.00 | 0.15 | 0.15 | 86 | 1014.3 |
| 20260507202126 | 16 | 102 | 6.4 | 9.7 | 0.00 | 0.79 | 0.00 | 86 | 1014.6 |
| 20260507201508 | 16 | 101 | 6.4 | 11.3 | 0.00 | 0.15 | 0.15 | 85 | 1014.4 |
| 20260507201133 | 16 | 79 | 6.4 | 11.3 | 0.00 | 0.79 | 0.00 | 86 | 1014.7 |
| 20260507200136 | 16 | 105 | 8.0 | 11.3 | 0.00 | 0.79 | 0.00 | 86 | 1014.8 |
| 20260507200012 | 16 | 110 | 8.0 | 11.3 | 0.00 | 0.15 | 0.15 | 85 | 1014.4 |
| 20260507195123 | 16 | 115 | 8.0 | 11.3 | 0.00 | 0.79 | 0.00 | 85 | 1014.6 |
| 20260507194524 | 16 | 107 | 8.0 | 14.5 | 0.00 | 0.15 | 0.15 | 84 | 1014.3 |
| 20260507194122 | 17 | 85 | 9.7 | 16.1 | 0.00 | 0.79 | 0.00 | 85 | 1014.6 |
| 20260507193126 | 17 | 122 | 9.7 | 12.9 | 0.00 | 0.79 | 0.00 | 86 | 1014.5 |
| 20260507193026 | 16 | 98 | 8.0 | 12.9 | 0.00 | 0.15 | 0.15 | 86 | 1014.1 |
| 20260507192157 | 17 | 95 | 6.4 | 12.9 | 0.00 | 0.79 | 0.00 | 87 | 1014.6 |
| 20260507191516 | 16 | 98 | 8.0 | 14.5 | 0.00 | 0.15 | 0.15 | 87 | 1014.0 |
| 20260507190148 | 16 | 100 | 6.4 | 9.7 | 0.00 | 0.79 | 0.00 | 86 | 1014.3 |
| 20260507190028 | 16 | 101 | 6.4 | 9.7 | 0.00 | 0.15 | 0.15 | 85 | 1013.9 |
| 20260507185204 | 17 | 98 | 6.4 | 12.9 | 0.00 | 0.79 | 0.00 | 84 | 1014.3 |
| 20260507184511 | 16 | 105 | 8.0 | 19.3 | 0.00 | 0.15 | 0.15 | 82 | 1013.9 |
| 20260507184149 | 17 | 118 | 11.3 | 19.3 | 0.00 | 0.79 | 0.00 | 81 | 1014.2 |
| 20260507183142 | 17 | 104 | 11.3 | 14.5 | 0.00 | 0.79 | 0.00 | 80 | 1014.1 |
| 20260507183016 | 16 | 112 | 11.3 | 14.5 | 0.00 | 0.15 | 0.15 | 79 | 1013.7 |
| 20260507182201 | 17 | 95 | 11.3 | 14.5 | 0.00 | 1.19 | 0.00 | 78 | 1013.9 |
| 20260507181523 | 17 | 97 | 9.7 | 12.9 | 0.00 | 0.18 | 0.15 | 78 | 1013.6 |
| 20260507181145 | 17 | 103 | 9.7 | 12.9 | 0.00 | 1.19 | 0.00 | 78 | 1013.9 |
| 20260507180151 | 17 | 119 | 9.7 | 14.5 | 0.00 | 1.19 | 0.00 | 77 | 1013.9 |
| 20260507180023 | 17 | 117 | 9.7 | 14.5 | 0.00 | 0.18 | 0.15 | 76 | 1013.4 |
| 20260507175151 | 17 | 88 | 9.7 | 14.5 | 0.00 | 1.19 | 0.00 | 74 | 1013.7 |
| 20260507174524 | 17 | 108 | 11.3 | 17.7 | 0.00 | 0.20 | 0.15 | 72 | 1013.2 |
| 20260507174149 | 18 | 110 | 11.3 | 20.9 | 0.00 | 1.19 | 0.00 | 72 | 1013.5 |
| 20260507173147 | 18 | 96 | 14.5 | 19.3 | 0.00 | 1.19 | 0.00 | 71 | 1013.5 |
| 20260507173032 | 18 | 94 | 12.9 | 19.3 | 0.00 | 0.23 | 0.15 | 71 | 1013.1 |
| 20260507172143 | 18 | 102 | 11.3 | 20.9 | 0.00 | 1.40 | 0.00 | 74 | 1013.5 |
| 20260507171514 | 18 | 90 | 14.5 | 20.9 | 0.00 | 0.25 | 0.15 | 71 | 1013.1 |
| 20260507171127 | 18 | 108 | 14.5 | 20.9 | 0.00 | 1.40 | 0.00 | 70 | 1013.5 |
| 20260507170133 | 19 | 102 | 9.7 | 19.3 | 0.00 | 1.40 | 0.00 | 69 | 1013.4 |
| 20260507170015 | 18 | 101 | 9.7 | 19.3 | 0.00 | 0.28 | 0.15 | 68 | 1013.1 |
| 20260507165150 | 19 | 112 | 14.5 | 19.3 | 0.00 | 1.40 | 0.00 | 68 | 1013.4 |
| 20260507164525 | 18 | 86 | 12.9 | 22.5 | 0.00 | 0.28 | 0.15 | 67 | 1012.9 |
| 20260507164137 | 19 | 87 | 19.3 | 22.5 | 0.00 | 1.40 | 0.00 | 66 | 1013.3 |
| 20260507163144 | 20 | 79 | 12.9 | 19.3 | 0.00 | 1.40 | 0.00 | 64 | 1013.2 |
| 20260507163027 | 19 | 91 | 12.9 | 19.3 | 0.00 | 0.28 | 0.15 | 62 | 1012.8 |
| 20260507161524 | 19 | 116 | 14.5 | 19.3 | 0.00 | 0.28 | 0.15 | 62 | 1012.8 |
| 20260507161151 | 20 | 88 | 12.9 | 20.9 | 0.00 | 1.40 | 0.00 | 62 | 1013.2 |
| 20260507160155 | 20 | 76 | 16.1 | 20.9 | 0.00 | 1.40 | 0.00 | 61 | 1013.1 |
| 20260507160020 | 19 | 103 | 16.1 | 20.9 | 0.00 | 0.28 | 0.15 | 58 | 1012.7 |
| 20260507155210 | 20 | 91 | 14.5 | 20.9 | 0.00 | 1.40 | 0.00 | 57 | 1013.2 |
| 20260507154516 | 20 | 91 | 16.1 | 20.9 | 0.00 | 0.28 | 0.15 | 57 | 1012.8 |
| 20260507154222 | 20 | 105 | 16.1 | 20.9 | 0.00 | 1.40 | 0.00 | 59 | 1013.2 |
| 20260507153011 | 20 | 87 | 14.5 | 20.9 | 0.00 | 0.28 | 0.15 | 60 | 1012.9 |
| 20260507151529 | 20 | 98 | 17.7 | 24.1 | 0.00 | 0.28 | 0.15 | 58 | 1013.0 |
| 20260507150027 | 20 | 89 | 19.3 | 25.7 | 0.00 | 0.28 | 0.15 | 62 | 1013.0 |
| 20260507144524 | 20 | 84 | 19.3 | 27.4 | 0.00 | 0.28 | 0.15 | 66 | 1013.0 |
| 20260507143021 | 20 | 103 | 19.3 | 27.4 | 0.00 | 0.33 | 0.15 | 61 | 1013.0 |
| 20260507141520 | 20 | 105 | 20.9 | 30.6 | 0.00 | 0.41 | 0.15 | 60 | 1013.0 |
| 20260507140020 | 20 | 83 | 16.1 | 22.5 | 0.00 | 0.41 | 0.15 | 58 | 1012.9 |
| 20260507134527 | 21 | 79 | 14.5 | 22.5 | 0.00 | 0.41 | 0.15 | 58 | 1013.0 |
| 20260507133026 | 21 | 73 | 17.7 | 22.5 | 0.00 | 0.41 | 0.15 | 58 | 1012.9 |
| 20260507131528 | 21 | 357 | 4.8 | 16.1 | 0.00 | 0.41 | 0.15 | 56 | 1013.0 |
| 20260507130030 | 21 | 329 | 3.2 | 12.9 | 0.00 | 0.41 | 0.15 | 58 | 1013.1 |
| 20260507124525 | 20 | 98 | 6.4 | 16.1 | 0.00 | 0.41 | 0.15 | 58 | 1013.1 |
| 20260507123033 | 21 | 89 | 9.7 | 14.5 | 0.00 | 0.41 | 0.15 | 61 | 1013.2 |
| 20260507121537 | 21 | 327 | 4.8 | 9.7 | 0.00 | 0.41 | 0.15 | 58 | 1013.4 |
| 20260507120004 | 21 | 6 | 1.6 | 8.0 | 0.00 | 0.41 | 0.15 | 55 | 1013.4 |
| 20260507114505 | 21 | 252 | 3.2 | 9.7 | 0.00 | 0.41 | 0.15 | 57 | 1013.5 |
| 20260507113004 | 21 | 330 | 3.2 | 8.0 | 0.00 | 0.41 | 0.15 | 55 | 1013.6 |
| 20260507111504 | 22 | 121 | 3.2 | 8.0 | 0.00 | 0.41 | 0.15 | 52 | 1013.6 |
| 20260507110004 | 21 | 219 | 0.0 | 6.4 | 0.00 | 0.41 | 0.15 | 55 | 1013.7 |
| 20260507104505 | 21 | 30 | 4.8 | 9.7 | 0.00 | 0.41 | 0.15 | 60 | 1013.8 |
| 20260507103008 | 21 | 313 | 1.6 | 9.7 | 0.00 | 0.41 | 0.15 | 57 | 1014.0 |
| 20260507101504 | 20 | 89 | 3.2 | 9.7 | 0.00 | 0.41 | 0.15 | 56 | 1014.1 |
| 20260507100006 | 21 | 358 | 1.6 | 4.8 | 0.00 | 0.41 | 0.15 | 56 | 1014.3 |
| 20260507094508 | 21 | 77 | 0.0 | 4.8 | 0.00 | 0.41 | 0.15 | 55 | 1014.3 |
| 20260507093006 | 20 | 195 | 1.6 | 9.7 | 0.00 | 0.41 | 0.15 | 59 | 1014.3 |
| 20260507091507 | 19 | 141 | 0.0 | 4.8 | 0.00 | 0.41 | 0.15 | 65 | 1014.2 |
| 20260507090006 | 18 | 257 | 6.4 | 9.7 | 0.00 | 0.41 | 0.15 | 62 | 1014.2 |
| 20260507084509 | 19 | 319 | 0.0 | 3.2 | 0.00 | 0.41 | 0.15 | 67 | 1013.9 |
| 20260507083022 | 18 | 330 | 4.8 | 9.7 | 0.00 | 0.41 | 0.15 | 66 | 1013.9 |
| 20260507081508 | 18 | 248 | 3.2 | 8.0 | 0.00 | 0.41 | 0.15 | 65 | 1013.7 |
| 20260507080011 | 19 | 0.0 | 3.2 | 0.00 | 0.41 | 0.15 | 61 | 1013.6 | |
| 20260507074524 | 18 | 308 | 1.6 | 3.2 | 0.00 | 0.41 | 0.15 | 68 | 1013.6 |
| 20260507073013 | 18 | 257 | 1.6 | 6.4 | 0.00 | 0.41 | 0.15 | 70 | 1013.6 |
| 20260507071513 | 17 | 274 | 1.6 | 3.2 | 0.00 | 0.41 | 0.15 | 69 | 1013.6 |
| 20260507070014 | 17 | 232 | 1.6 | 4.8 | 0.00 | 0.41 | 0.15 | 74 | 1013.5 |
| 20260507064516 | 16 | 256 | 3.2 | 8.0 | 0.00 | 0.41 | 0.15 | 77 | 1013.4 |
| 20260507063009 | 15 | 276 | 6.4 | 9.7 | 0.00 | 0.43 | 0.15 | 76 | 1013.4 |
| 20260507061514 | 15 | 250 | 4.8 | 9.7 | 0.00 | 0.43 | 0.15 | 77 | 1013.3 |
| 20260507060019 | 15 | 232 | 3.2 | 8.0 | 0.00 | 0.43 | 0.15 | 77 | 1013.0 |
| 20260507054515 | 15 | 219 | 3.2 | 8.0 | 0.00 | 0.43 | 0.15 | 78 | 1013.1 |
| 20260507053019 | 13 | 213 | 1.6 | 4.8 | 0.00 | 0.46 | 0.15 | 81 | 1013.1 |
| 20260507051518 | 13 | 148 | 0.0 | 3.2 | 0.00 | 0.56 | 0.15 | 82 | 1012.8 |
| 20260507050012 | 12 | 146 | 1.6 | 1.6 | 0.00 | 0.58 | 0.15 | 83 | 1012.6 |
| 20260507044521 | 12 | 157 | 0.0 | 1.6 | 0.00 | 0.61 | 0.15 | 83 | 1012.4 |
| 20260507043031 | 12 | 143 | 0.0 | 3.2 | 0.00 | 0.69 | 0.15 | 81 | 1012.2 |
| 20260507041503 | 12 | 146 | 1.6 | 3.2 | 0.00 | 0.94 | 0.15 | 81 | 1012.2 |
| 20260507040016 | -17 | 0.0 | 0.0 | 0.00 | 1.17 | 0.15 | 1012.0 | ||
| 20260507034515 | 13 | 3.2 | 4.8 | 0.00 | 1.22 | 0.15 | 79 | 1011.8 | |
| 20260507033024 | 13 | 208 | 1.6 | 4.8 | 0.00 | 1.22 | 0.15 | 80 | 1011.8 |
| 20260507031523 | 13 | 237 | 3.2 | 4.8 | 0.00 | 1.22 | 0.15 | 79 | 1011.8 |
| 20260507030023 | 13 | 214 | 0.0 | 3.2 | 0.00 | 1.24 | 0.15 | 80 | 1011.8 |
| 20260507024504 | 13 | 248 | 3.2 | 6.4 | 0.00 | 1.32 | 0.15 | 81 | 1011.6 |
| 20260507023023 | 13 | 276 | 1.6 | 6.4 | 0.00 | 1.57 | 0.15 | 82 | 1011.8 |
| 20260507021522 | 13 | 236 | 4.8 | 9.7 | 0.00 | 1.57 | 0.15 | 81 | 1011.8 |
| 20260507020018 | 13 | 241 | 3.2 | 9.7 | 0.00 | 1.57 | 0.15 | 81 | 1011.9 |
| 20260507014527 | 13 | 243 | 4.8 | 8.0 | 0.00 | 1.57 | 0.15 | 80 | 1011.7 |
| 20260507013033 | 14 | 239 | 1.6 | 4.8 | 0.00 | 1.57 | 0.15 | 80 | 1011.7 |
| 20260507011514 | 14 | 165 | 3.2 | 11.3 | 0.00 | 1.60 | 0.15 | 79 | 1011.5 |
| 20260507010006 | 14 | 227 | 3.2 | 16.1 | 0.00 | 1.68 | 0.15 | 79 | 1011.4 |
| 20260507004527 | 14 | 172 | 8.0 | 17.7 | 0.00 | 1.70 | 0.15 | 79 | 1011.5 |
| 20260507003019 | 14 | 166 | 6.4 | 14.5 | 0.00 | 1.70 | 0.15 | 81 | 1011.5 |
| 20260507001516 | 14 | 167 | 8.0 | 16.1 | 0.00 | 1.70 | 0.15 | 81 | 1011.4 |
| 20260507000012 | 14 | 225 | 9.7 | 14.5 | 0.00 | 1.70 | 0.15 | 82 | 1011.6 |
| 20260506234512 | 13 | 188 | 6.4 | 12.9 | 0.05 | 1.70 | 0.15 | 83 | 1011.6 |
| 20260506233007 | 13 | 149 | 4.8 | 12.9 | 0.08 | 1.70 | 0.15 | 84 | 1011.7 |